Regional Weather Roundup
Issued by NWS

Home | Current Version | Previous Version | Graphics & Text | Print | Product List | Glossary On
Versions: 1 2 3 4 5 6 7 8 9 10 11 12 13 14 15 16 17 18 19 20 21 22 23 24 25 26 27 28 29 30 31 32 33 34 35 36 37 38 39 40 41 42 43 44 45 46 47 48 49 50
000
ASUS43 KIND 241759
RWRIN

WEATHER ROUNDUP FOR INDIANA
NATIONAL WEATHER SERVICE INDIANAPOLIS IN
100 PM EST WED DEC 24 2014

NOTE: "FAIR" INDICATES FEW OR NO CLOUDS BELOW 12,000 FEET WITH NO
SIGNIFICANT WEATHER AND/OR OBSTRUCTIONS TO VISIBILITY.

* - STATION DOES NOT REPORT WEATHER SUCH AS PRECIPITATION OR FOG.

+ - STATION NOT QUALITY CONTROLLED BY THE NATIONAL WEATHER SERVICE.
    USE DATA WITH CAUTION...ESPECIALLY DEWPOINT AND RELATIVE
    HUMIDITY OBSERVATIONS.

INZ001>003-010>013-019-020-241900-
NORTHWEST INDIANA

CITY           SKY/WX    TMP DP  RH WIND       PRES   REMARKS
GARY /AIRPORT/ CLOUDY    41  37  87 CALM      29.53F FOG
VALPARAISO     NOT AVBL

$$

LMZ046-743>745-241900-
SOUTHERN LAKE MICHIGAN

STATION/POSITION TIME  TEMP WIND        PRES
                       AIR  DIR/SP/G
                 (UTC) (F)  (DEG/KT/KT) (MB)
MICHIGAN CITY    1700   38   30/  8/  9   N/A

$$

INZ004-005-014>016-021>024-241900-
NORTH CENTRAL INDIANA

CITY           SKY/WX    TMP DP  RH WIND       PRES   REMARKS
ELKHART        CLOUDY    39  36  87 N6        29.48F
GOSHEN         LGT RAIN  40  38  93 N15       29.44F
6HR MIN TEMP:  40; 6HR MAX TEMP:  41; 6HR PCP:  0.16;

SOUTH BEND     LGT RAIN  41  37  86 N9        29.49F
6HR MIN TEMP:  40; 6HR MAX TEMP:  41; 6HR PCP:  0.23;


$$

INZ006>009-017-018-025>027-241900-
NORTHEAST INDIANA

CITY           SKY/WX    TMP DP  RH WIND       PRES   REMARKS
ANGOLA *+      CLOUDY    39  39 100 N7        29.43F
FORT WAYNE     CLOUDY    42  40  92 N14       29.41F
6HR MIN TEMP:  41; 6HR MAX TEMP:  43; 6HR PCP:  0.28;


$$

INZ028-029-035-036-043>045-051>053-241900-
WEST CENTRAL INDIANA

CITY           SKY/WX    TMP DP  RH WIND       PRES   REMARKS
GREENCASTLE +  RAIN      37  34  87 NW6       29.53F
LAFAYETTE      LGT RAIN  39  38  96 NW12      29.51F FOG
6HR MIN TEMP:  39; 6HR MAX TEMP:  41; 6HR PCP:  0.19;

TERRE HAUTE    RAIN      40  37  89 NW9       29.56S FOG
6HR MIN TEMP:  40; 6HR MAX TEMP:  42; 6HR PCP:  0.26;


$$

INZ030>032-037>040-046>048-054>057-064-065-241900-
CENTRAL INDIANA

CITY           SKY/WX    TMP DP  RH WIND       PRES   REMARKS
COLUMBUS       RAIN      41  41 100 NW10      29.46S FOG
INDIANAPOLIS   RAIN      39  38  96 NW15      29.48F FOG
6HR MIN TEMP:  39; 6HR MAX TEMP:  40; 6HR PCP:  0.26;

-EAGLE CREEK   LGT RAIN  40  38  93 NW13      29.47F FOG
6HR MIN TEMP:  40; 6HR MAX TEMP:  41; 6HR PCP:  0.19;

KOKOMO *+      CLOUDY    41  37  87 N13       29.42F
MT COMFORT *+  CLOUDY    41 N/A N/A N15       29.44F
SHELBYVILLE    LGT RAIN  44  40  85 NW12      29.44F
6HR MIN TEMP:  43; 6HR MAX TEMP:  44; 6HR PCP:  0.07;


$$

INZ033-034-041-042-049-050-058-059-241900-
EAST CENTRAL INDIANA

CITY           SKY/WX    TMP DP  RH WIND       PRES   REMARKS
MUNCIE         CLOUDY    42  40  92 N12       29.41F
6HR MIN TEMP:  42; 6HR MAX TEMP:  43; 6HR PCP:  0.12;


$$

INZ060-061-067>069-081>083-085>088-241900-
SOUTHWEST INDIANA

CITY           SKY/WX    TMP DP  RH WIND       PRES   REMARKS
EVANSVILLE     LGT RAIN  44  40  85 W12       29.63S
6HR MIN TEMP:  43; 6HR MAX TEMP:  45; 6HR PCP:  0.20;

HUNTINGBURG *+ CLOUDY    43  39  87 W16G22    29.60R
6HR MIN TEMP:  43; 6HR MAX TEMP:  43; 6HR PCP:  0.11;


$$

INZ062-063-066-070>080-084-089>092-241900-
SOUTH CENTRAL AND SOUTHEAST INDIANA

CITY           SKY/WX    TMP DP  RH WIND       PRES   REMARKS
BLOOMINGTON    LGT RAIN  41  39  93 NW15G22   29.52R
6HR MIN TEMP:  41; 6HR MAX TEMP:  42; 6HR PCP:  0.33;


$$



USA.gov is the U.S. government's official web portal to all federal, state and local government web resources and services.